Miscellaneous Local Product
Issued by NWS Hastings, NE

Home | Current Version | Previous Version | Text Only | Print | Product List | Glossary Off
Versions: 1 2 3 4 5 6 7 8 9 10 11 12 13 14 15 16 17 18 19 20 21 22 23 24 25 26 27 28 29 30 31 32 33 34 35 36 37 38 39 40 41 42 43 44 45 46 47 48 49 50

000
AXUS43 KGID 030502
MISGRI

GID CWA HOURLY WEATHER ROUNDUP
NATIONAL WEATHER SERVICE HASTINGS NE
1100 PM CST FRI DEC 02 2016

NOTE: "FAIR" INDICATES FEW OR NO CLOUDS BELOW 12,000 FEET WITH NO
SIGNIFICANT WEATHER AND/OR OBSTRUCTIONS TO VISIBILITY.

...SOUTH CENTRAL NEBRASKA...

CITY           SKY/WX    TMP DP  RH WIND       PRES   REMARKS
GRAND ISLAND   CLEAR     24  22  91 S5        30.31R WCI  18
HASTINGS       PTCLDY    27  21  78 S3        30.31S
KEARNEY        CLOUDY    23  18  80 SW3       30.30R
ORD            CLEAR     21  18  88 SE3       30.27S
YORK           CLOUDY    27  25  93 CALM      30.32R
AURORA         PTCLDY    25  23  93 SE5       30.31R WCI  19
LEXINGTON      CLOUDY    22  19  90 CALM      30.28R
HOLDREGE       CLEAR     26  22  84 S5        30.29R WCI  20
HEBRON         CLOUDY    24  21  89 CALM      30.35R

...NEBRASKA PANHANDLE...

CITY           SKY/WX    TMP DP  RH WIND       PRES   REMARKS
CHADRON        CLEAR     22  16  78 CALM      30.16F
ALLIANCE       CLEAR     16  12  84 S3        30.17F
SCOTTSBLUFF    NOT AVBL
SIDNEY         CLEAR     16  12  84 S7        30.19S WCI   6

...WESTERN AND NORTH CENTRAL NEBRASKA...

CITY           SKY/WX    TMP DP  RH WIND       PRES   REMARKS
VALENTINE      CLEAR     21  18  88 CALM      30.22S
AINSWORTH      CLEAR     22  20  93 S6        30.23S WCI  14
ONEILL         CLEAR     25  24  93 S6        30.26F WCI  18
BROKEN BOW     CLEAR     23  21  92 CALM      30.25S
IMPERIAL       CLOUDY    25  20  81 CALM      30.25R
NORTH PLATTE   MOCLDY    21  17  84 CALM      30.26
MCCOOK         CLOUDY    27  20  75 SW5       30.29R WCI  22

...EASTERN NEBRASKA...

CITY           SKY/WX    TMP DP  RH WIND       PRES   REMARKS
NORFOLK        CLEAR     24  20  84 CALM      30.29S
SO SIOUX CITY  CLEAR     29  27  92 SE5       30.32S WCI  24
TEKAMAH        CLEAR     30  25  81 CALM      30.33S
COLUMBUS       CLEAR     21  19  93 CALM      30.32S
ALBION         PTCLDY    21  19  91 CALM      30.29S
OMAHA EPPLEY   MOCLDY    29  22  75 CALM      30.34S
OFFUTT AFB     CLEAR     23  22  99 S3        30.34R
MILLARD        CLEAR     28  26  90 CALM      30.34S
LINCOLN        CLOUDY    24  22  91 CALM      30.36R
NEBRASKA CITY  CLEAR     30  26  83 CALM      30.34R
BEATRICE       PTCLDY    28  24  88 CALM      30.35R
FALLS CITY       N/A    N/A N/A N/A MISG      30.36R

...NORTHERN KANSAS...

CITY           SKY/WX    TMP DP  RH WIND       PRES   REMARKS
GOODLAND       NOT AVBL
HILL CITY      NOT AVBL
NORTON         MOCLDY    28  18  64 CALM      30.29S
PHILLIPSBURG   MOCLDY    25  21  86 CALM      30.33R
SMITH CENTER   CLEAR     27  23  86 E7        30.34R WCI  19
BELOIT         MOCLDY    27  23  86 CALM      30.32F
HAYS           CLOUDY    31  25  78 CALM      30.32R
RUSSELL        NOT AVBL
CONCORDIA      CLOUDY    31  25  78 E3        30.34R



USA.gov is the U.S. government's official web portal to all federal, state and local government web resources and services.